Sussex, NJ

5:51 PM EDT on October 17, 2017 (GMT -0400)
Sussex

Weather History for KFWN - August, 2014

Change the Weather History Date:

Sunday, August 17, 2014

  Actual Average Record
Temperature  
Mean Temperature 69 °F -  
Max Temperature 82 °F 80 °F 93 °F (1965)
Min Temperature 57 °F 55 °F 39 °F (1979)
Cooling Degree Days 4    
Growing Degree Days 19 (Base 50)    
Moisture  
Dew Point 57 °F    
Average Humidity 65    
Maximum Humidity 90    
Minimum Humidity 40    
Precipitation  
Precipitation 0.01 in - - ()
Sea Level Pressure  
Sea Level Pressure 29.88 in    
Wind  
Wind Speed 3 mph (WNW)    
Max Wind Speed 12 mph    
Max Gust Speed 20 mph    
Visibility 10 miles    
Events Rain    
Averages and records for this station are not official NWS values.
T = Trace of Precipitation, MM = Missing Value Source: NWS Daily Summary

Daily Weather History Graph

Daily Weather History Graph

Search for Another Location

Airport or City:

Trip Planner

Search our weather history database for the weather conditions in past years. The results will help you decide how hot, cold, wet, or windy it might be!

Date:

Astronomy

Aug. 17, 2014 Rise Set
Actual Time 6:09 AM EDT 7:54 PM EDT
Civil Twilight 5:40 AM EDT 8:23 PM EDT
Nautical Twilight 5:04 AM EDT 8:59 PM EDT
Astronomical Twilight 4:26 AM EDT 9:37 PM EDT
Moon No Moon Rise 1:57 PM EDT
Length of Visible Light 14h 43m
Length of Day
13h 44m
Waning Gibbous, 48% of the Moon is Illuminated
Aug 17
Waning Gibbous
Aug 25
New
Sep 2
First Quarter
Sep 8
Full
Sep 15
Last Quarter

Hourly Weather History & Observations

Time (EDT) Temp. Heat Index Dew Point Humidity Pressure Visibility Wind Dir Wind Speed Gust Speed Precip Events Conditions
12:53 AM 62.1 °F - 55.9 °F 80% 29.91 in 10.0 mi Calm Calm - N/A   Overcast
1:53 AM 59.0 °F - 55.0 °F 87% 29.89 in 10.0 mi Calm Calm - N/A   Mostly Cloudy
3:53 AM 57.0 °F - 53.1 °F 87% 29.88 in 10.0 mi Calm Calm - N/A   Partly Cloudy
4:53 AM 57.0 °F - 54.0 °F 89% 29.88 in 10.0 mi Calm Calm - N/A   Mostly Cloudy
5:53 AM 59.0 °F - 55.0 °F 87% 29.88 in 9.0 mi Calm Calm - 0.00 in Rain Light Rain
6:53 AM 59.0 °F - 55.9 °F 90% 29.89 in 7.0 mi Calm Calm - 0.01 in   Scattered Clouds
7:53 AM 62.1 °F - 57.0 °F 84% 29.88 in 9.0 mi Calm Calm - N/A   Mostly Cloudy
8:53 AM 66.0 °F - 59.0 °F 78% 29.89 in 10.0 mi SSW 4.6 mph - N/A   Scattered Clouds
9:53 AM 66.9 °F - 61.0 °F 81% 29.89 in 10.0 mi SSW 4.6 mph - N/A   Overcast
10:01 AM 68.0 °F - 61.0 °F 78% 29.89 in 10.0 mi Variable 3.5 mph - N/A   Overcast
10:38 AM 73.0 °F - 62.1 °F 68% 29.88 in 10.0 mi Variable 4.6 mph - N/A   Scattered Clouds
10:53 AM 75.0 °F - 61.0 °F 62% 29.88 in 10.0 mi West 6.9 mph - N/A   Scattered Clouds
11:12 AM 75.9 °F - 61.0 °F 60% 29.88 in 10.0 mi West 6.9 mph - N/A   Mostly Cloudy
11:44 AM 77.0 °F - 61.0 °F 58% 29.88 in 10.0 mi Variable 5.8 mph - N/A   Mostly Cloudy
11:53 AM 78.1 °F - 61.0 °F 56% 29.87 in 10.0 mi NNW 11.5 mph - N/A   Scattered Clouds
12:53 PM 78.1 °F - 59.0 °F 52% 29.86 in 10.0 mi North - - N/A   Mostly Cloudy
1:53 PM 78.1 °F - 57.9 °F 50% 29.86 in 10.0 mi NW 8.1 mph - N/A   Mostly Cloudy
2:53 PM 81.0 °F 80.8 °F 55.9 °F 42% 29.84 in 10.0 mi NNW 8.1 mph - N/A   Partly Cloudy
3:53 PM 80.1 °F 80.2 °F 55.9 °F 43% 29.84 in 10.0 mi North 6.9 mph 19.6 mph N/A   Mostly Cloudy
4:53 PM 80.1 °F 80.0 °F 54.0 °F 40% 29.85 in 10.0 mi NNW 6.9 mph - N/A   Scattered Clouds
5:53 PM 79.0 °F - 54.0 °F 42% 29.86 in 10.0 mi NW 9.2 mph - N/A   Mostly Cloudy
6:53 PM 75.9 °F - 54.0 °F 46% 29.88 in 10.0 mi NW 5.8 mph - N/A   Clear
7:53 PM 73.0 °F - 54.0 °F 51% 29.89 in 10.0 mi Calm Calm - N/A   Clear
8:53 PM 71.1 °F - 54.0 °F 55% 29.91 in 10.0 mi NNW 4.6 mph - N/A   Clear
9:53 PM 69.1 °F - 54.0 °F 58% 29.93 in 10.0 mi NW 6.9 mph - N/A   Clear
10:53 PM 66.9 °F - 54.0 °F 63% 29.93 in 10.0 mi WNW 5.8 mph - N/A   Clear
11:53 PM 63.0 °F - 54.0 °F 72% 29.93 in 10.0 mi WNW 4.6 mph - N/A   Clear